Messwerte Porto Alegre

Temperatur

Temperatur
°C
1573664400 15.00 15.00 30
1573668000 16.00 16.00 30
1573671600 17.00 17.00 30
1573675200 18.00 18.00 29
1573678800 19.00 19.00 27
1573682400 20.00 20.00 26
1573686000 21.00 21.00 25
1573689600 22.00 22.00 25
1573693200 23.00 23.00 23
1573696800 0.00 0.00
1573700400 1.00 1.00 23
1573704000 2.00 2.00
1573707600 3.00 3.00
1573711200 4.00 4.00
1573714800 5.00 5.00
1573718400 6.00 6.00
1573722000 7.00 7.00 20
1573725600 8.00 8.00 20
1573729200 9.00 9.00
1573732800 10.00 10.00 21
1573736400 11.00 11.00 21
1573740000 12.00 12.00 22
1573743600 13.00 13.00 24
1573747200 14.00 14.00 26

Aktuellste Messwerte

Wettercharakter
Wetter: wechselnd bewölkt
Temperatur
26 °C
Feuchtigkeit
75 %
Wind
10 km/hWindrichtung: Südwest
Luftdruck
1007 hPa
Messzeit: 14. November 2019, 14.00Datenquelle: METAR

Weitere Messstationen in der Nähe

Messstation Temperatur Entfernung
Porto Alegre 27 °C 4 km
Pelotas 29 °C 227 km
Passo Fundo - 228 km
Santa Maria 27 °C 241 km
Bagé 29 °C 314 km
Florianopolis 24 °C 368 km

Wind

Windrichtung Böen Mittelwind
° km/h km/h
1573664400 15.00 14.00 - 15.00 50° 5
1573668000 16.00 15.00 - 16.00 310° 5
1573671600 17.00 16.00 - 17.00 60° 5
1573675200 18.00 17.00 - 18.00 150° 5
1573678800 19.00 18.00 - 19.00 110° 15
1573682400 20.00 19.00 - 20.00 110° 5
1573686000 21.00 20.00 - 21.00 5
1573689600 22.00 21.00 - 22.00 190° 5
1573693200 23.00 22.00 - 23.00 20° 5
1573696800 0.00 23.00 - 0.00
1573700400 1.00 0.00 - 1.00 5
1573704000 2.00 1.00 - 2.00
1573707600 3.00 2.00 - 3.00
1573711200 4.00 3.00 - 4.00
1573714800 5.00 4.00 - 5.00
1573718400 6.00 5.00 - 6.00
1573722000 7.00 6.00 - 7.00 140° 5
1573725600 8.00 7.00 - 8.00 120° 10
1573729200 9.00 8.00 - 9.00
1573732800 10.00 9.00 - 10.00 140° 10
1573736400 11.00 10.00 - 11.00 90° 10
1573740000 12.00 11.00 - 12.00 5
1573743600 13.00 12.00 - 13.00 100° 5
1573747200 14.00 13.00 - 14.00 230° 10

Ihre Wetterstation

Fehlt Ihre Wetterstation auf unserem Portal?

Schreiben Sie an network@meteonews.ch

Klima

Wann ist es am wärmsten? Wann regnet es am wenigsten? Unsere Klimadaten geben Auskunft.